RH
43 42 41 40 39 39 39 41 42 42 41 39 37 35 33 31 29 29 29 29 28 27 27 26 25 23 23 24 29 34 33 30 39 67 95 100 89 80 72 61 53 50 50 51 50 48 47 46 45 46 46 47 47 48 49 49 51 54 56 58 60 60 61 65 68 70 75 82 87 86 85 84 84 84 82 81 80 79 75 68 56 49 46 43 41 40 38 32
45 44 43 42 40 39 37 37 38 40 41 41 40 37 35 33 31 30 28 28 29 29 28 27 27 26 24 22 24 28 34 35 32 47 73 87 94 101 99 87 73 64 58 55 53 52 51 49 48 48 47 47 47 49 50 50 53 56 57 59 60 60 59 60 63 66 71 80 84 87 90 92 93 90 88 86 85 83 77 70 60 53 48 44 42 40 36 30
51 49 48 46 44 42 40 38 37 37 38 39 40 39 38 36 34 32 30 29 28 29 29 29 28 27 26 24 23 23 27 34 37 40 47 62 85 98 101 104 99 90 80 71 62 57 55 54 54 53 51 51 49 50 51 52 57 58 59 62 63 62 61 61 63 67 72 78 82 88 93 94 95 91 88 90 89 84 76 69 62 57 50 45 42 37 33 26
52 49 48 46 45 43 42 40 39 38 38 37 38 39 39 37 36 33 32 32 30 29 29 29 29 28 27 26 25 24 22 26 35 43 39 42 68 87 89 96 103 104 99 92 82 72 67 65 64 60 56 54 52 53 53 56 61 60 61 63 63 62 64 67 70 73 76 80 83 88 91 92 94 91 91 94 90 82 75 69 62 55 50 45 39 33 28 23
45 44 43 41 41 40 40 39 39 38 38 38 37 38 38 38 37 36 34 33 32 32 30 29 29 29 28 28 27 26 24 23 26 37 42 38 50 71 80 83 90 98 102 103 100 95 89 84 78 73 68 63 62 64 66 68 68 64 62 61 61 63 69 73 75 76 79 84 89 92 94 95 94 93 93 93 87 80 74 66 58 53 47 40 32 27 23 21
40 38 36 35 34 34 35 36 37 37 37 37 37 38 39 38 38 38 37 35 33 33 32 31 29 28 29 28 28 27 27 26 24 27 36 40 43 53 67 76 77 81 91 97 100 102 101 97 92 89 84 79 79 81 82 82 79 72 65 60 63 69 75 77 79 82 86 92 97 99 101 98 93 92 92 91 85 77 69 61 55 49 40 32 26 23 21 19
38 36 35 33 32 31 31 32 34 35 35 36 37 38 39 39 39 39 40 38 35 33 33 33 31 29 28 28 28 28 28 28 28 25 27 34 43 48 52 65 70 69 74 81 87 92 95 95 95 95 93 92 95 96 93 91 88 80 71 70 75 81 84 88 93 96 97 99 101 104 104 97 91 91 90 88 80 70 63 55 48 39 31 25 22 20 19 17
38 37 37 36 33 30 29 30 32 34 35 35 36 37 38 39 39 40 41 40 38 36 33 33 32 31 29 29 28 28 29 29 29 29 27 25 35 47 49 53 62 63 62 65 71 77 83 87 88 90 92 95 101 103 97 93 92 87 83 86 90 94 96 100 104 106 106 105 105 105 100 91 87 87 86 81 71 62 55 46 36 28 24 21 20 19 18 16
38 37 37 38 36 33 31 32 33 34 34 35 37 38 39 39 39 39 39 40 40 38 35 33 32 32 31 30 29 28 29 29 28 30 30 27 26 37 47 51 55 59 59 60 61 63 67 70 73 77 82 87 92 97 97 97 100 97 95 97 100 103 105 106 105 104 106 104 104 102 91 82 79 79 79 72 61 52 43 34 27 23 21 20 20 19 17 16
39 38 38 40 39 36 34 35 36 37 36 37 38 40 41 41 40 38 38 38 39 39 37 34 33 32 32 30 30 31 30 29 29 29 30 31 27 28 37 47 54 56 56 58 59 58 57 58 61 64 69 74 78 84 90 97 105 105 103 104 105 106 107 107 105 105 106 104 103 97 83 75 74 72 68 58 47 38 31 26 23 22 22 21 21 19 18 17
42 40 40 41 42 39 38 40 41 41 40 40 41 42 44 44 43 40 39 38 37 38 39 37 34 33 32 32 32 33 32 29 28 30 30 31 31 29 30 37 48 56 57 56 59 59 58 56 57 58 60 63 67 71 75 81 91 98 103 105 106 107 106 105 105 108 109 106 102 91 79 73 68 61 51 41 33 28 25 24 24 24 24 23 22 21 20 19
46 43 43 43 43 42 42 44 45 45 44 43 44 45 45 45 44 42 40 40 38 37 39 41 38 35 34 34 35 34 31 30 28 29 31 31 32 33 32 31 38 51 60 60 59 60 60 58 56 55 54 55 57 60 63 66 70 75 84 91 97 101 103 103 104 105 102 96 90 79 68 61 51 42 34 30 27 25 25 25 26 26 26 26 25 24 23 22
48 44 45 45 45 44 45 48 50 49 47 47 46 46 46 45 44 44 42 42 40 37 38 41 43 40 37 38 38 34 31 31 30 30 32 33 33 33 34 33 32 40 54 64 64 61 59 58 55 53 51 51 51 53 56 58 58 58 60 63 69 75 79 82 84 83 79 72 65 56 48 41 35 31 28 27 26 26 26 27 28 29 29 29 27 26 27 25
47 45 46 48 47 45 45 49 53 52 49 48 48 47 46 44 43 43 43 42 41 39 37 41 46 45 43 43 38 32 32 33 33 33 34 33 34 34 34 35 34 33 41 56 65 65 62 60 59 57 55 54 54 54 54 53 53 52 50 48 47 49 50 51 52 52 50 46 41 37 34 31 29 28 27 26 26 27 29 31 32 33 34 32 30 28 29 27
44 44 47 49 49 47 44 46 52 55 53 49 48 47 45 43 43 42 42 42 41 40 39 41 45 47 46 45 38 33 34 37 37 35 33 33 33 33 33 34 35 34 34 41 53 64 68 68 69 68 67 65 63 62 58 53 51 48 48 47 44 42 40 38 37 37 35 33 31 31 30 29 28 29 29 30 31 33 34 35 36 36 36 33 31 31 29 28
40 42 46 50 51 50 46 45 48 53 56 52 47 45 44 43 43 42 42 43 43 42 41 42 44 45 46 43 37 35 40 43 39 32 31 33 33 33 33 33 34 35 35 34 38 52 67 78 84 83 85 85 79 71 63 56 51 48 51 55 52 45 40 36 35 33 31 30 30 31 30 32 34 35 36 37 39 40 39 38 37 35 34 33 31 31 29 27
35 39 45 50 52 51 47 46 46 49 53 54 48 43 41 42 41 40 42 43 43 43 42 43 43 44 48 48 43 44 49 47 38 31 31 33 33 33 33 33 34 34 35 34 34 41 57 79 94 99 103 102 89 75 67 64 63 64 68 69 61 50 42 38 35 32 32 33 36 38 39 42 43 43 42 42 43 43 42 41 39 37 36 35 33 30 29 27
32 38 45 50 52 51 47 44 46 46 47 50 49 44 40 38 38 38 40 40 41 42 44 46 48 53 61 60 52 50 52 48 37 31 32 33 34 34 33 34 34 33 35 35 36 36 43 67 93 106 108 105 95 85 83 86 90 93 90 79 65 53 46 42 39 38 41 45 47 49 49 48 46 45 44 44 45 45 45 44 41 41 40 39 35 32 29 27
31 39 45 49 50 47 44 42 43 43 42 43 45 45 42 38 37 38 38 39 42 48 52 55 59 65 70 66 58 56 56 53 43 37 37 36 34 35 35 34 33 33 34 35 38 37 37 51 78 100 107 104 101 99 101 106 108 106 96 80 67 58 53 50 49 49 52 54 56 55 53 50 47 47 47 47 47 48 48 47 46 45 44 42 38 34 33 30
35 42 45 46 45 42 40 39 39 39 39 39 39 42 42 39 38 39 40 43 49 55 58 61 66 71 72 68 64 63 61 57 50 45 45 41 37 36 36 34 34 34 34 35 37 38 39 44 61 87 104 105 103 101 104 108 108 104 92 80 73 67 63 61 59 57 59 61 61 59 55 52 51 51 50 50 50 50 51 51 50 49 46 43 39 36 35 32
40 42 42 41 39 37 35 35 36 36 36 36 37 37 37 36 36 39 42 46 50 53 57 61 64 68 69 67 65 64 63 59 52 46 47 44 39 37 37 37 35 34 36 37 38 39 40 43 55 79 100 107 106 103 103 104 100 95 88 84 80 77 74 71 68 68 70 69 65 62 58 55 54 53 52 52 52 52 52 52 50 48 43 40 37 36 34 32
39 38 37 36 34 32 32 32 33 34 34 34 34 34 32 32 34 37 39 42 44 47 51 53 55 58 58 59 60 60 61 59 53 46 46 44 39 37 37 37 39 41 41 40 43 42 41 52 69 85 101 108 107 104 103 101 95 91 90 90 89 88 85 82 81 81 78 72 66 62 58 56 54 53 53 53 54 54 54 53 49 44 40 36 34 32 32 30
34 33 33 31 30 30 30 30 32 32 32 31 31 31 32 34 36 37 39 40 41 43 45 46 48 48 48 50 53 54 55 54 51 46 45 44 42 41 40 45 57 59 54 51 50 48 55 78 97 101 104 108 107 105 103 100 97 97 98 99 100 98 96 94 90 86 81 73 66 61 57 56 54 53 55 56 58 59 57 52 45 40 36 33 32 29 29 30
31 30 30 29 28 29 29 30 31 30 30 30 30 31 33 35 37 38 39 40 40 41 43 43 43 42 41 44 46 48 49 47 45 42 43 45 42 41 45 63 81 80 75 69 63 67 81 93 95 92 94 100 103 104 102 100 101 101 101 103 105 102 99 97 92 86 81 74 66 61 58 56 55 55 57 60 63 62 55 47 39 35 33 30 30 29 29 30
29 28 29 28 28 28 29 30 30 29 29 30 31 33 35 36 37 38 38 39 39 40 41 41 42 42 40 42 45 47 46 45 44 42 44 44 42 50 66 84 96 96 94 87 81 89 94 88 86 86 89 95 101 103 102 102 103 103 102 102 103 100 97 96 91 85 80 73 66 62 57 55 57 58 61 64 64 57 47 40 35 32 31 30 29 29 29 30
29 28 28 28 28 29 29 29 29 28 29 30 32 34 35 37 38 38 38 38 39 39 41 42 42 40 39 43 48 48 48 47 45 44 44 44 48 62 80 94 100 102 104 100 97 99 92 87 92 95 96 100 103 103 103 102 102 103 102 101 101 100 98 95 90 84 79 71 65 61 57 57 60 63 67 66 58 49 41 36 33 31 30 29 29 29 29 29
29 28 28 27 27 26 26 26 25 25 27 29 30 32 33 35 34 34 35 36 36 38 40 41 39 37 40 46 47 46 50 50 49 49 45 47 62 73 82 95 101 101 104 104 103 102 96 95 99 101 101 102 103 104 104 103 103 103 102 101 101 100 99 95 88 82 77 69 64 61 60 61 65 69 68 60 49 42 37 35 35 35 33 31 30 30 30 32
26 24 22 20 18 18 17 16 17 18 20 21 23 26 27 27 27 28 29 30 30 31 33 34 33 34 37 40 42 42 46 50 58 67 63 64 81 92 94 101 103 100 102 103 102 103 103 104 105 105 105 104 104 104 104 103 102 102 102 101 102 103 99 90 83 80 75 68 64 63 66 69 71 70 62 51 43 38 35 35 40 46 50 50 46 42 41 45
17 13 11 10 9 8 8 8 9 10 11 13 14 15 15 16 16 17 18 19 20 21 23 24 25 30 36 43 50 52 52 57 63 69 75 83 92 98 101 103 103 103 104 101 100 101 101 102 103 102 103 106 106 105 103 102 102 102 102 102 103 103 95 85 81 79 72 68 67 68 74 76 73 64 52 44 39 37 36 36 41 52 63 69 68 64 61 60
8 6 5 5 5 5 6 5 6 6 7 8 7 8 8 9 10 10 11 12 13 14 16 19 29 48 66 77 84 84 85 89 82 71 79 94 97 99 102 99 97 101 103 103 101 99 99 100 100 101 103 105 104 102 101 101 103 102 101 103 104 99 91 84 81 77 73 73 74 77 81 77 66 55 46 42 40 38 37 37 38 47 58 63 66 69 67 63
5 5 5 5 5 6 6 6 7 7 7 7 7 8 8 8 9 9 10 11 14 16 18 31 58 83 96 99 101 101 101 103 98 90 95 101 99 102 102 96 94 99 101 102 100 100 101 100 102 104 104 104 102 102 101 101 102 101 101 104 101 94 88 85 79 77 79 81 82 85 82 70 57 49 44 43 44 41 38 38 37 39 47 51 54 57 56 51
6 5 5 6 5 6 6 6 6 6 7 7 7 9 9 10 10 10 13 18 26 32 39 61 90 102 101 99 100 101 100 100 100 101 105 106 102 101 100 97 99 101 100 100 100 100 100 100 103 104 102 103 104 103 102 101 101 101 105 105 99 92 87 84 82 83 87 89 89 86 75 62 52 47 45 46 48 46 41 40 40 41 44 48 50 49 46 44
5 5 5 5 5 5 5 5 5 6 7 7 8 10 9 11 13 16 28 41 52 63 73 90 103 101 99 101 100 99 99 100 101 100 103 107 104 100 103 106 107 103 100 101 102 101 100 101 101 102 102 102 102 102 102 102 102 103 106 102 94 91 90 89 91 94 95 93 89 79 67 58 51 46 47 49 51 49 44 41 43 46 47 48 49 46 43 41
5 4 5 5 5 5 5 5 6 5 7 8 9 10 11 19 28 37 55 72 83 91 98 105 105 99 99 101 99 99 99 99 100 99 101 103 100 98 103 108 107 104 102 102 103 101 101 102 101 101 102 101 100 102 102 102 102 102 102 98 92 91 93 93 94 95 93 88 80 72 65 57 50 48 48 48 49 48 47 46 46 48 49 49 47 43 42 39
5 5 5 5 5 5 5 6 6 6 8 8 10 19 31 46 58 66 81 94 98 100 102 103 102 101 101 100 99 100 101 101 100 99 100 100 98 97 97 100 103 105 107 105 101 101 102 101 101 101 101 100 100 102 103 105 104 101 99 98 96 95 96 95 93 92 88 83 76 71 65 57 52 51 48 47 48 49 51 50 50 52 52 52 49 43 40 37
5 5 5 5 5 6 6 7 7 8 10 13 30 54 62 67 79 87 95 102 101 101 102 100 100 102 102 101 100 101 101 103 101 100 101 100 99 98 97 100 101 100 104 106 103 103 103 101 101 101 100 101 102 103 104 105 104 100 98 98 95 93 94 93 90 89 86 81 76 71 65 59 57 54 50 50 52 54 57 57 60 63 60 58 53 44 40 37
5 6 6 6 7 7 7 9 11 15 26 41 65 81 78 77 91 100 101 101 100 101 101 100 100 101 102 102 101 102 101 101 100 100 100 99 99 100 99 101 98 90 94 104 105 103 102 103 103 101 100 102 103 104 105 104 101 97 99 98 92 89 92 91 89 92 92 86 80 73 67 64 61 59 57 56 59 65 69 70 73 73 65 60 53 46 42 40
6 7 6 7 8 9 12 16 22 37 59 75 82 86 86 93 102 103 100 100 100 100 99 100 101 101 102 102 101 101 101 100 100 99 99 100 101 100 101 103 97 88 90 100 104 102 101 101 100 101 103 103 102 102 103 103 101 101 104 102 96 94 97 96 95 98 95 87 80 74 70 69 68 68 67 64 67 72 76 78 80 76 65 56 52 50 47 44
8 8 8 11 12 16 22 29 44 68 86 91 91 94 99 102 102 100 100 100 101 101 100 100 101 100 101 102 101 101 100 100 101 100 101 102 101 101 103 100 93 92 99 104 105 104 102 100 98 101 104 102 102 104 104 103 102 102 105 104 100 100 102 101 99 96 89 82 79 77 76 76 79 82 80 76 75 80 87 90 86 75 64 57 55 54 50 45
11 10 14 21 26 33 43 55 74 91 95 95 98 101 102 101 100 100 100 99 101 102 101 102 102 101 102 103 102 100 100 101 100 100 100 100 99 102 102 95 94 100 105 105 105 104 103 101 100 102 103 100 100 101 102 102 103 104 106 106 103 102 103 100 95 90 85 84 87 88 86 88 94 97 91 86 86 89 93 90 80 72 65 60 54 49 49 45
17 21 31 41 49 60 74 86 96 98 95 98 101 100 101 101 101 100 99 99 100 100 100 100 101 101 101 103 103 101 100 100 99 99 99 100 101 101 96 95 102 106 103 101 103 104 103 101 100 101 103 103 101 101 103 104 103 105 107 107 105 103 103 99 93 90 88 90 95 97 98 100 105 105 98 95 95 93 92 86 79 75 67 57 49 45 48 43
31 46 56 64 76 86 93 101 104 100 98 100 100 99 100 100 99 100 101 99 96 96 98 99 100 101 101 101 101 100 101 101 100 100 100 101 102 98 96 101 106 103 100 100 100 101 104 103 101 101 103 105 103 104 108 107 103 104 106 107 106 105 106 102 98 97 95 95 98 101 106 108 108 106 102 101 98 94 92 86 79 73 63 55 50 47 45 39
51 68 72 79 94 99 100 103 103 102 101 100 100 100 100 98 96 96 98 98 95 95 99 101 101 100 100 100 100 100 102 101 101 102 102 104 106 103 103 107 105 100 100 101 100 100 103 103 102 101 101 104 104 105 108 108 105 106 107 107 107 106 106 105 104 103 101 101 104 107 108 107 106 105 103 99 95 94 90 81 73 67 62 59 52 48 45 39
65 80 82 87 100 104 103 104 101 101 102 101 100 100 99 99 98 97 99 99 98 99 102 105 105 103 100 100 100 100 101 101 102 102 101 104 107 107 108 108 104 101 101 101 100 101 102 101 101 101 100 101 102 103 105 106 105 106 106 106 106 104 103 102 104 105 104 104 105 102 99 100 103 105 102 98 95 95 88 75 70 68 65 63 54 48 46 41
67 80 89 95 101 104 104 103 100 100 101 101 101 100 100 100 100 103 105 103 102 101 99 99 103 107 105 102 101 100 100 102 102 101 99 101 103 104 106 106 104 103 102 101 100 101 102 101 101 102 102 102 102 102 103 104 104 105 104 103 104 104 103 102 103 103 100 97 97 97 98 102 107 105 100 97 94 93 86 74 69 69 69 67 56 47 44 42
74 77 88 95 100 103 103 101 100 100 100 100 100 99 99 100 101 105 107 104 103 102 97 93 95 102 109 110 107 104 103 103 104 103 102 102 102 101 103 104 104 103 103 102 102 101 101 101 100 101 102 102 104 104 105 105 104 103 101 100 102 105 104 102 102 101 97 96 101 105 107 107 106 103 99 96 95 93 84 73 70 71 73 69 57 47 43 41
90 86 89 96 101 103 102 100 100 101 100 98 97 98 100 100 102 106 108 106 105 103 101 100 98 100 106 111 111 111 109 107 105 105 103 103 102 102 102 103 104 102 101 102 102 101 101 101 100 101 101 100 101 103 104 105 104 103 101 100 102 105 104 103 105 105 104 105 107 107 107 105 102 103 102 101 103 98 85 76 73 74 75 68 54 47 45 43
99 98 97 101 104 103 101 101 101 101 100 99 99 101 101 99 99 101 103 103 105 104 104 105 103 100 101 103 104 106 110 111 109 105 102 101 101 101 101 102 102 101 101 102 102 102 102 101 101 101 100 100 100 100 101 102 102 102 101 101 102 104 104 104 105 105 104 105 106 105 106 106 104 105 104 105 106 100 88 80 76 76 74 63 50 46 47 50
100 101 102 103 106 104 101 101 102 102 101 100 100 99 98 99 100 99 98 99 101 102 103 103 99 94 94 97 98 98 101 107 110 108 105 104 102 101 102 102 102 101 101 101 101 102 102 101 101 101 100 100 100 100 101 101 100 101 101 101 101 101 101 100 100 100 101 102 106 107 104 102 102 102 102 104 105 97 86 80 78 77 71 55 47 49 49 58
99 101 102 102 103 103 102 101 101 101 100 99 99 98 99 104 105 103 102 100 100 101 100 99 96 92 92 94 95 94 93 95 99 102 105 106 104 103 103 102 101 101 102 102 101 101 102 102 102 102 101 100 100 100 102 103 102 102 102 101 101 101 102 101 100 102 105 105 105 103 100 99 99 101 104 104 100 92 82 79 80 75 64 50 47 51 51 64
99 100 101 101 102 102 102 102 101 101 101 101 101 101 101 104 105 104 103 101 103 105 102 100 101 101 98 95 91 86 82 81 82 86 91 95 97 101 103 102 102 102 101 101 101 101 102 103 101 101 102 101 100 101 103 104 104 104 104 103 104 105 105 104 104 105 105 103 102 101 101 100 99 103 106 98 91 85 77 78 82 72 57 51 50 52 54 66
99 100 101 100 102 103 101 100 100 100 99 100 101 101 101 101 103 105 105 104 106 108 107 105 104 104 105 101 94 87 80 75 73 74 75 78 80 84 91 95 99 102 102 102 102 102 105 106 104 104 104 102 101 102 100 98 98 101 103 104 106 109 109 108 107 106 101 99 101 104 104 101 101 106 105 93 83 80 74 76 78 67 55 54 54 53 55 63
Wind_Speed
70 70 71 71 71 71 71 71 71 71 71 71 70 70 69 68 67 66 66 67 69 70 72 73 74 76 80 84 88 89 87 85 83 82 83 84 81 79 79 80 80 79 79 79 78 78 76 75 74 73 73 73 73 72 71 70 68 69 70 71 72 71 68 67 65 65 64 62 61 59 58 57 58 58 59 62 63 63 64 63 60 57 57 56 57 57 58 58
72 72 73 73 73 74 74 73 73 73 73 73 73 72 71 70 69 68 67 66 67 69 70 72 73 75 76 79 83 88 89 87 84 84 87 85 80 79 80 80 79 79 79 79 79 78 77 76 74 74 74 74 73 72 71 69 68 69 71 71 71 70 68 67 65 65 64 63 62 60 58 58 59 59 60 62 63 64 65 63 61 59 58 58 58 59 59 58
72 72 72 72 72 73 74 75 76 76 76 75 75 74 73 73 72 70 69 68 67 67 69 71 73 74 75 76 78 82 87 89 87 87 89 85 81 82 82 80 79 79 79 79 78 78 77 75 75 75 74 74 73 72 71 69 69 70 71 71 70 69 67 66 65 65 65 63 62 61 59 60 60 60 61 63 64 65 65 63 61 60 59 59 60 60 60 59
70 70 70 71 71 72 73 75 76 77 77 77 77 76 76 75 73 72 71 70 69 68 68 69 71 72 73 75 76 78 81 85 88 91 91 85 83 85 84 82 81 80 79 79 78 77 76 75 75 75 75 74 73 72 71 70 70 71 72 71 70 68 66 66 65 65 64 63 63 62 61 61 62 61 62 63 64 65 64 63 61 61 60 60 61 62 62 61
69 70 71 72 73 73 73 74 76 77 77 78 78 78 78 77 75 74 73 72 71 71 70 69 70 71 72 74 75 76 77 79 85 92 92 87 86 87 86 84 83 81 80 79 78 77 76 76 76 75 74 74 73 71 71 71 71 72 72 71 69 67 66 66 66 65 64 64 63 63 63 63 62 62 62 64 65 64 64 63 62 61 61 61 62 62 63 63
70 71 72 73 74 74 75 75 77 77 77 78 78 78 79 78 77 75 75 74 74 73 72 72 71 69 70 72 74 75 75 76 80 87 91 90 89 89 87 85 84 83 81 80 79 78 77 76 75 75 74 73 72 72 71 71 71 72 71 69 67 66 66 66 66 65 64 64 63 63 64 64 62 62 62 64 65 65 64 64 62 62 62 62 63 63 64 64
70 71 72 73 74 75 76 76 77 78 78 78 77 77 78 78 78 77 76 76 75 75 74 74 73 71 70 71 72 74 73 75 78 81 86 89 90 90 89 87 86 84 82 81 80 79 78 77 76 75 74 73 72 72 72 71 70 71 69 67 66 66 66 65 64 64 64 64 64 64 65 64 62 61 62 64 66 65 64 64 63 63 62 63 64 65 65 64
70 70 71 72 74 75 75 76 77 78 79 79 78 77 76 77 77 77 77 77 77 76 76 75 74 73 71 70 71 71 72 76 77 77 80 85 89 92 91 88 87 85 84 83 81 80 79 78 77 76 74 73 74 73 72 70 69 70 68 66 66 65 65 64 63 63 63 63 64 65 65 63 62 61 63 66 66 65 64 64 63 63 62 63 64 66 66 64
70 70 70 71 72 73 74 75 77 78 80 79 78 77 77 76 75 75 75 76 76 77 77 76 75 74 73 72 71 70 73 76 75 75 77 79 84 89 92 91 89 87 85 84 82 80 79 79 78 77 76 75 74 73 71 69 69 70 68 66 65 64 64 63 63 62 63 63 65 66 65 63 62 61 64 67 66 65 65 64 63 62 62 63 64 65 65 63
70 68 68 68 69 71 71 72 74 77 79 79 79 78 77 76 75 74 74 74 75 76 77 76 75 75 74 73 72 71 74 74 73 74 76 76 79 84 90 92 91 89 88 86 83 81 81 81 80 79 77 75 74 72 69 68 70 70 68 66 65 65 64 64 63 63 64 65 66 67 65 63 62 63 65 67 66 64 64 64 62 61 61 62 63 64 63 62
69 67 66 65 65 67 68 68 71 74 77 78 78 77 77 76 75 74 73 73 73 74 74 75 74 74 74 74 73 74 75 73 72 73 73 74 76 79 84 90 92 92 90 88 85 84 84 84 82 80 78 75 74 72 70 70 71 71 69 67 67 66 66 65 65 66 66 67 68 67 65 64 64 64 65 65 64 64 63 61 60 59 60 61 62 63 61 60
69 67 65 64 63 63 64 64 67 70 74 76 77 77 77 76 75 73 72 72 72 72 72 73 73 72 73 73 75 77 75 71 70 71 72 73 74 76 79 84 89 92 92 90 89 88 87 85 83 81 78 76 74 72 71 71 72 72 70 68 68 68 67 67 68 69 68 68 69 68 65 65 64 64 64 63 63 62 61 59 59 58 58 59 61 61 60 59
69 67 65 63 62 61 60 61 63 66 70 73 75 76 76 75 74 72 71 71 71 71 71 71 71 71 71 71 76 77 73 71 70 70 72 73 73 74 76 79 85 90 92 93 92 91 89 86 83 81 79 77 75 73 72 72 72 72 70 69 68 68 68 69 70 70 68 68 68 66 65 65 63 63 62 62 61 60 59 58 57 57 56 58 60 60 59 58
69 67 65 63 62 60 59 59 61 64 66 69 72 74 74 74 72 71 70 70 69 69 69 69 69 70 69 71 75 74 73 73 73 74 74 73 73 74 74 76 80 85 90 93 94 92 89 86 83 81 80 78 76 74 73 73 73 72 70 69 68 68 69 71 71 69 67 67 66 65 65 64 62 62 62 61 60 59 58 57 56 55 55 57 59 58 58 58
69 67 65 63 61 61 60 59 60 62 64 67 69 71 72 71 70 69 68 67 67 67 67 67 68 69 69 72 74 72 73 75 77 77 74 72 73 73 74 75 77 81 86 90 93 92 90 87 84 82 81 80 78 77 75 73 73 72 70 69 69 70 71 71 69 67 67 66 65 64 65 63 62 61 60 59 58 57 56 56 55 55 55 57 57 58 58 58
67 66 64 62 61 61 60 59 59 61 64 66 67 69 69 68 68 67 66 66 65 65 66 66 67 68 68 71 72 71 73 77 79 77 72 71 72 72 73 74 74 77 81 85 88 90 89 87 85 83 82 81 80 78 76 73 72 71 69 69 71 72 71 68 67 67 66 64 63 64 63 61 59 58 57 56 55 56 56 56 56 56 56 57 58 58 59 59
65 64 63 62 61 61 61 61 60 61 63 65 67 68 67 67 67 66 65 64 64 64 65 65 66 66 67 70 71 71 75 78 78 74 71 71 70 70 71 71 73 75 77 80 83 86 87 87 85 84 83 82 82 80 76 73 71 70 69 71 74 72 69 67 66 65 63 61 60 60 59 57 56 56 56 55 56 57 56 56 57 57 56 57 58 59 60 60
63 62 62 61 61 61 62 62 61 62 63 65 66 67 67 67 66 65 65 64 64 64 64 64 65 64 65 69 70 72 75 76 75 72 71 70 68 68 68 70 72 73 74 76 78 82 84 86 85 84 83 82 81 78 74 72 71 71 71 73 73 70 67 66 65 62 59 56 56 56 57 57 57 56 56 56 57 57 57 57 57 56 56 57 59 59 60 61
61 61 61 61 61 62 63 63 63 63 64 65 65 66 67 67 66 65 64 64 63 63 64 64 64 64 66 69 70 71 72 73 73 71 70 69 67 66 67 69 70 71 71 72 75 78 81 84 84 83 81 79 77 74 72 72 72 72 72 71 70 67 64 63 62 60 57 54 54 56 58 59 58 57 56 57 58 57 57 57 56 55 56 57 58 59 61 62
60 60 60 61 61 63 63 64 64 64 64 65 65 65 65 65 64 63 62 62 62 63 63 63 63 64 66 68 68 69 71 72 72 71 70 69 67 66 66 67 67 68 69 70 73 76 78 80 81 80 78 77 75 73 73 74 74 73 71 68 66 64 62 62 61 59 56 54 56 57 58 58 58 57 57 58 58 57 57 56 56 56 56 57 59 60 62 62
59 59 60 61 62 63 64 64 64 64 64 65 65 65 64 62 60 60 60 60 61 62 62 63 64 65 67 67 67 68 70 71 72 71 69 68 66 64 64 64 65 66 67 70 72 73 74 75 76 76 77 76 75 74 75 75 74 72 68 65 63 62 62 62 60 57 54 55 56 56 56 57 57 57 58 59 58 57 57 57 57 58 58 59 60 61 62 62
59 59 60 61 62 63 63 63 63 63 64 64 65 64 62 60 58 59 59 60 61 62 63 64 64 66 68 67 67 68 69 70 71 69 67 66 64 63 63 63 63 65 67 69 70 70 70 69 71 75 76 75 74 73 74 73 71 68 64 61 60 60 61 60 57 55 55 55 55 55 56 57 57 58 60 60 59 57 57 58 58 59 60 61 61 62 61 59
59 59 60 61 62 62 62 61 62 63 63 63 62 61 59 59 60 61 61 62 63 63 64 65 66 68 68 67 67 67 69 70 71 68 66 64 63 63 62 62 63 65 66 67 67 67 65 66 71 74 74 72 71 70 71 70 67 63 60 58 58 59 59 57 55 55 55 55 55 55 56 57 57 59 60 59 59 58 58 59 59 60 60 61 61 60 59 57
58 59 60 61 61 61 60 60 61 62 62 61 60 59 59 61 62 63 64 64 64 65 66 67 67 68 67 66 66 67 69 70 70 68 65 64 64 63 62 62 63 64 64 64 64 63 64 69 73 72 70 69 68 68 68 66 63 59 56 56 57 57 57 56 55 55 55 55 55 56 56 56 57 59 58 57 59 61 60 59 58 58 59 59 59 58 56 55
58 58 59 59 59 58 58 59 60 60 60 59 59 60 61 63 64 65 66 66 66 66 66 66 67 68 66 64 64 67 69 69 69 67 65 64 64 62 61 61 61 61 61 62 61 62 66 69 69 67 66 66 65 65 65 63 60 58 55 55 56 57 56 56 56 56 55 55 54 55 55 56 57 58 57 56 59 62 61 57 56 56 56 56 55 54 53 52
56 56 57 57 57 57 58 59 60 60 59 60 60 62 64 65 66 67 67 67 66 66 66 67 68 68 64 62 64 67 66 67 67 66 65 64 64 62 61 60 59 58 59 60 60 63 66 65 64 64 64 63 62 62 62 60 58 56 54 54 56 57 57 57 57 56 55 54 53 54 55 56 57 57 57 57 58 60 59 56 54 53 52 52 51 50 51 51
55 55 56 57 57 58 59 60 60 60 60 61 62 64 65 67 68 68 67 67 67 66 66 67 68 66 62 63 67 66 64 65 65 63 63 63 62 61 60 59 59 59 58 58 58 61 61 60 61 62 61 61 60 59 59 57 55 53 53 54 56 57 58 58 56 54 53 52 52 54 55 56 57 58 57 56 55 55 54 52 50 48 48 47 48 48 48 48
55 56 56 57 57 58 59 59 59 59 61 62 63 65 66 67 67 66 66 67 67 66 66 67 66 63 63 65 66 64 65 66 64 61 61 60 59 57 57 57 57 58 56 55 57 59 58 58 60 60 59 58 57 57 57 56 54 54 54 54 56 59 59 57 54 52 52 52 53 54 55 57 58 57 54 52 51 52 51 48 45 44 43 44 45 45 45 45
54 54 54 54 54 54 54 54 54 56 58 59 61 63 63 63 63 63 63 63 63 63 63 63 60 57 59 61 61 62 64 66 65 63 60 57 55 56 58 59 57 55 53 54 58 58 57 58 59 59 58 57 57 57 56 55 54 55 55 55 57 60 58 54 52 51 51 52 53 53 55 58 58 54 51 49 49 49 47 45 43 42 41 42 43 43 43 43
48 47 46 46 46 46 46 46 48 51 52 54 55 55 54 55 56 56 57 57 57 58 58 56 54 53 54 55 56 57 59 61 63 63 60 56 54 58 63 63 58 53 51 54 56 55 55 57 57 55 55 55 56 55 54 54 55 55 55 56 58 58 56 52 51 50 50 52 53 53 55 57 55 50 47 46 45 45 43 42 41 41 41 42 42 42 43 43
40 39 39 39 39 39 40 41 44 46 47 48 47 46 47 49 50 50 51 51 52 54 54 55 55 55 56 58 58 58 57 57 57 58 61 61 59 63 66 61 55 50 50 52 53 52 54 54 53 53 54 54 54 53 53 54 54 54 54 56 57 56 54 52 50 49 50 52 52 53 55 55 50 46 43 43 42 42 41 40 39 39 40 41 41 41 42 43
33 33 33 33 33 34 36 39 40 41 41 41 41 42 44 45 45 46 48 49 52 54 56 60 63 62 64 64 63 62 60 57 54 54 59 64 64 63 62 57 51 48 48 49 51 52 53 52 52 54 54 53 53 52 52 52 52 53 54 56 55 55 53 50 49 50 51 52 53 54 55 51 46 43 41 40 41 41 40 39 38 38 39 40 40 41 42 43
28 28 28 29 31 33 35 35 36 36 37 38 39 41 42 43 45 47 50 53 55 57 60 67 71 72 70 67 64 64 61 58 57 55 56 59 61 59 56 53 50 49 50 51 52 52 52 54 54 54 54 53 52 51 51 51 52 54 55 55 54 53 52 50 50 51 52 53 54 54 52 47 43 42 40 39 40 40 39 38 38 38 40 41 42 42 42 43
24 24 26 28 29 31 32 32 33 35 37 38 40 41 43 47 51 53 56 58 58 59 62 69 75 75 74 70 67 64 61 59 59 58 56 56 56 54 52 51 49 50 52 52 53 53 53 54 54 54 53 52 51 51 52 53 55 56 56 55 53 52 52 51 52 52 53 54 53 51 48 45 43 41 39 39 39 39 39 39 38 39 41 42 43 42 42 42
22 23 25 26 27 28 30 31 33 35 37 39 42 45 50 54 57 58 60 61 61 61 62 66 71 75 76 74 70 68 64 61 60 58 56 56 55 54 53 52 52 52 52 51 51 52 53 54 54 54 53 52 52 54 54 55 56 57 55 53 52 52 52 53 53 53 53 52 50 48 46 44 42 41 39 38 38 37 38 39 39 40 41 42 43 43 41 41
21 22 24 25 26 28 31 33 35 37 39 43 48 54 58 60 61 62 63 64 64 63 62 61 64 72 77 75 72 71 69 65 62 59 58 57 57 57 56 57 57 56 53 51 51 52 52 53 54 54 53 53 55 56 56 57 58 57 54 53 53 53 53 53 52 52 52 50 47 46 45 43 42 40 38 37 36 37 38 38 39 40 42 42 43 43 41 40
21 22 24 26 28 31 34 36 38 41 45 51 57 60 61 61 62 63 64 64 65 63 61 59 59 64 71 74 73 72 70 66 63 61 60 58 57 57 57 58 60 57 52 51 53 53 53 55 55 53 54 56 57 58 57 57 56 54 53 54 54 53 52 52 51 50 49 48 46 45 44 43 42 40 38 37 36 36 37 38 39 41 43 44 44 43 41 41
22 24 26 28 32 35 38 40 43 47 53 58 61 62 61 62 65 65 63 63 62 61 59 58 58 59 63 67 70 71 70 68 65 63 60 58 57 57 56 58 58 55 52 52 53 53 54 55 55 55 57 58 58 57 56 55 53 52 53 54 53 51 51 51 50 49 48 48 46 44 43 43 42 41 39 38 37 37 39 39 41 43 44 45 44 44 43 43
24 27 30 32 35 38 41 44 48 54 59 62 62 61 62 64 65 64 62 61 59 57 56 56 56 57 57 59 62 66 68 68 67 64 61 59 58 56 55 57 56 55 52 51 52 52 54 54 54 56 58 58 57 56 55 53 52 52 53 53 52 50 51 50 50 49 48 47 45 43 43 42 42 42 41 40 39 40 41 42 44 45 45 46 45 44 43 42
28 32 35 37 40 42 45 48 53 58 61 62 62 62 63 62 61 61 59 58 57 55 55 54 53 54 55 55 57 60 64 67 68 66 63 61 58 55 54 55 55 54 53 52 52 53 54 54 54 56 58 57 56 55 54 53 52 52 53 53 52 51 51 51 50 48 47 45 44 43 43 43 44 43 43 43 42 43 45 45 46 46 46 47 45 42 40 38
33 36 39 42 44 46 48 52 56 59 61 61 62 63 62 60 59 58 55 54 54 53 53 53 52 51 52 54 55 56 59 62 64 64 63 61 58 55 54 53 53 54 53 53 53 54 55 55 56 57 58 57 55 54 54 54 53 53 54 54 53 52 52 51 49 48 46 45 44 44 44 44 45 45 45 45 45 46 47 47 47 47 48 48 44 40 37 35
39 41 43 46 48 49 52 55 57 59 60 61 62 61 60 59 57 55 52 50 50 50 50 50 50 50 49 50 52 53 54 55 56 57 57 57 56 54 53 52 53 52 52 52 53 54 56 58 59 59 58 57 55 54 55 54 53 53 54 53 53 52 51 50 49 48 47 46 45 45 45 46 47 47 46 47 47 47 48 48 48 48 48 47 43 40 38 35
43 46 47 48 50 52 54 56 57 59 60 61 60 58 57 55 53 51 49 48 46 46 47 47 48 49 49 50 51 52 53 53 54 55 55 55 55 54 52 52 52 52 51 52 53 55 57 59 60 59 58 57 56 56 56 55 54 54 54 54 53 52 51 50 50 50 48 47 46 47 47 48 48 48 48 48 48 48 49 50 49 48 48 46 43 40 38 35
47 49 49 49 50 52 55 56 57 58 59 58 57 55 52 50 49 47 46 45 44 45 46 47 48 48 49 50 51 52 53 53 54 54 54 54 54 54 53 53 53 52 52 53 54 56 59 59 59 57 57 57 56 56 56 56 55 55 55 54 54 53 52 51 51 51 51 50 49 49 49 49 49 49 49 48 48 49 51 50 49 48 47 45 43 40 37 34
49 50 50 49 49 52 55 56 56 56 56 54 52 50 48 47 45 45 44 44 44 45 45 46 48 48 48 49 50 50 50 51 51 52 52 52 52 53 53 54 54 54 54 54 55 57 59 59 58 57 56 56 56 57 58 58 58 57 57 56 56 55 54 54 54 54 53 52 51 50 50 50 50 50 49 49 49 50 51 50 48 47 46 44 43 40 38 35
49 49 49 49 49 51 54 55 55 54 52 50 47 45 44 44 44 44 44 44 44 44 43 43 44 46 47 48 49 49 49 49 49 49 50 51 51 52 53 54 55 55 55 56 56 58 59 59 58 58 57 57 58 59 60 60 60 59 58 58 58 57 57 57 57 56 54 52 51 51 51 51 51 51 50 50 50 51 52 49 47 46 44 43 42 41 40 37
48 47 47 47 49 51 53 54 54 53 50 48 46 45 44 45 46 46 46 45 43 42 41 40 41 43 45 46 46 47 47 48 48 49 49 50 50 51 52 54 55 55 56 56 57 58 60 59 59 59 59 59 60 61 61 62 61 60 59 59 59 59 58 57 57 56 54 53 52 52 53 53 52 51 51 50 50 52 52 49 46 44 43 42 41 42 41 39
49 46 46 46 48 51 53 54 55 54 52 50 49 47 46 45 45 46 46 45 44 42 41 40 41 42 43 44 45 46 46 47 47 48 48 48 49 50 51 53 54 55 55 56 57 58 59 59 60 60 60 61 61 62 63 63 62 61 60 60 60 60 59 58 58 57 55 55 54 55 54 54 53 52 51 51 51 53 52 48 46 44 42 41 41 41 40 40
50 47 46 47 49 52 54 55 56 55 54 52 50 46 43 41 41 42 42 42 42 42 41 40 40 40 41 42 43 45 46 47 48 48 49 49 49 50 51 52 53 54 55 55 56 57 58 59 59 60 61 61 61 62 63 63 63 62 61 61 61 61 61 60 58 57 56 56 56 56 55 54 53 52 52 52 52 52 51 48 45 43 41 40 40 40 38 39
52 50 49 49 51 52 53 53 53 53 52 51 48 44 41 40 40 40 41 41 41 40 40 40 39 39 40 41 42 44 46 48 49 50 51 52 51 52 52 53 53 54 55 55 56 56 57 58 58 59 60 61 61 62 62 63 63 62 61 61 61 61 61 60 59 58 58 57 58 57 56 55 54 53 52 52 52 51 49 47 45 43 40 38 37 37 36 38
53 51 50 50 51 51 51 52 52 52 51 49 47 44 41 40 40 40 40 40 39 39 39 39 40 41 41 42 42 43 45 46 48 50 51 53 53 54 55 55 55 56 57 57 56 56 57 57 57 58 59 60 61 62 62 63 62 62 61 61 61 61 61 61 60 59 59 58 58 57 56 55 54 54 53 52 51 50 48 46 44 43 40 37 36 35 35 38
54 52 50 50 49 49 49 49 49 49 49 48 46 44 42 41 41 41 40 39 40 40 41 41 42 42 43 43 43 43 43 44 44 46 47 49 51 53 55 56 57 58 58 59 59 59 59 58 58 58 59 59 61 62 63 63 62 62 61 61 61 61 62 61 61 61 60 59 58 57 57 57 55 54 53 52 50 49 47 46 44 42 39 37 36 35 34 37
Wind_Direction
266 265 264 264 263 262 260 260 259 259 258 258 258 257 256 254 252 249 247 245 244 244 243 243 243 242 242 241 240 240 241 241 241 242 243 243 243 245 246 246 246 245 246 245 245 245 245 245 246 246 247 247 248 249 249 250 251 252 252 253 255 256 256 257 258 260 261 262 263 263 264 264 264 264 265 266 268 269 270 271 272 273 273 274 274 275 275 276
267 266 265 263 262 261 260 259 258 258 257 257 257 256 256 255 254 252 250 247 245 244 243 243 242 242 241 241 240 239 239 240 240 240 242 242 243 245 245 246 246 246 246 246 246 245 246 246 246 246 247 247 248 249 249 250 250 251 252 253 255 256 256 257 258 259 261 262 263 263 264 264 264 264 265 266 267 268 269 271 272 273 274 274 274 275 275 275
267 266 265 263 262 261 260 259 258 257 256 256 255 255 255 254 254 253 252 250 248 245 244 243 242 241 241 241 240 239 239 238 239 239 241 241 242 243 244 245 246 246 246 246 246 246 246 246 246 246 247 247 248 248 249 249 250 250 251 252 254 255 257 258 259 259 261 262 263 263 263 263 263 264 265 266 266 267 269 271 272 274 275 275 276 276 275 275
264 264 264 263 262 261 260 259 258 256 255 254 254 254 254 254 253 253 253 252 250 248 246 244 243 242 241 240 240 239 239 238 237 238 240 239 240 241 242 243 244 245 246 246 247 247 246 246 246 246 247 247 248 248 249 249 249 250 251 252 254 255 257 258 259 260 261 262 262 263 263 263 263 264 264 265 266 268 269 271 272 274 275 276 277 276 275 275
263 263 263 262 261 261 259 258 257 256 255 254 253 253 253 253 252 252 252 252 251 250 248 246 244 242 241 240 239 239 239 238 237 237 238 238 238 240 241 242 243 244 245 246 247 247 247 246 246 247 247 247 248 248 248 248 249 250 251 252 254 256 257 257 258 260 261 261 262 262 262 262 263 264 264 265 267 268 270 271 273 274 276 276 276 275 275 274
266 265 264 262 261 260 259 258 256 255 254 253 252 252 252 252 252 251 251 251 251 250 250 248 246 243 242 241 239 239 238 238 237 237 237 237 237 239 239 240 242 242 243 244 245 246 246 246 246 247 247 247 248 248 248 248 249 250 252 253 255 256 256 257 258 259 260 261 261 262 262 262 263 264 265 266 267 268 270 272 274 275 275 275 275 275 275 275
269 268 266 265 262 260 259 257 255 254 253 252 252 251 251 251 251 250 250 250 251 250 249 249 248 246 243 241 240 239 238 237 237 237 237 236 236 238 239 239 240 241 242 242 243 244 244 245 246 246 247 247 247 248 248 249 250 252 253 254 255 255 256 257 258 258 259 259 260 260 261 262 263 264 265 267 268 269 272 274 275 275 275 275 275 275 275 276
270 269 267 266 264 262 259 257 255 253 252 251 250 250 250 250 250 249 249 249 250 250 249 248 248 247 245 243 241 239 238 237 236 237 237 236 235 236 237 238 239 240 240 241 241 242 243 244 245 246 246 246 247 247 248 250 252 253 253 253 254 255 255 256 257 258 258 259 259 260 260 262 263 265 267 268 269 271 273 274 275 275 276 276 276 275 276 276
270 269 267 266 264 263 261 258 254 251 250 249 249 249 249 249 249 248 248 248 248 249 249 248 247 247 246 244 242 240 239 237 236 236 237 236 235 236 236 237 237 238 239 240 240 241 242 243 244 244 245 245 246 248 249 251 252 252 252 252 253 254 254 255 256 257 258 259 260 260 261 262 264 266 268 269 271 273 274 274 275 276 276 276 275 275 276 276
270 269 267 265 264 263 261 258 254 250 249 248 247 247 248 248 248 247 247 246 247 247 248 247 246 246 246 245 243 242 240 238 236 236 236 236 236 235 236 236 236 237 238 239 239 240 241 241 242 243 244 245 247 248 249 250 251 252 252 252 253 253 254 255 256 257 258 259 260 261 263 264 266 268 269 270 272 273 274 275 276 276 276 276 275 276 276 275
271 269 267 265 263 263 261 258 253 249 247 246 246 246 246 247 247 247 246 246 246 245 246 246 246 245 244 244 244 242 241 238 236 235 236 236 236 235 235 235 236 237 237 238 238 239 240 241 242 243 244 246 247 248 249 249 250 251 252 252 253 254 255 256 257 258 259 260 262 263 265 267 267 268 269 271 272 274 275 276 276 276 276 276 276 275 275 274
271 269 267 265 263 262 261 258 253 250 247 246 245 245 245 246 246 246 246 245 245 244 244 244 244 244 243 243 243 242 241 239 236 235 236 235 235 235 235 235 235 236 236 237 238 238 239 241 242 244 245 246 247 248 248 249 250 251 252 252 253 254 256 256 257 257 259 261 263 265 266 267 268 269 270 271 273 274 274 274 275 275 275 275 275 275 275 274
270 269 267 265 262 261 260 258 254 250 247 246 245 245 245 245 245 244 244 244 243 243 242 242 242 242 241 241 241 241 241 240 237 236 235 234 234 234 234 234 234 235 235 236 237 238 239 241 242 244 245 246 247 247 248 248 250 251 252 252 253 254 255 255 256 257 259 261 263 265 267 267 268 270 270 271 272 273 273 273 274 274 274 274 273 274 274 274
268 268 266 264 262 260 258 257 254 251 248 246 245 244 244 244 243 243 242 242 241 241 240 240 240 239 239 239 240 240 240 239 238 236 234 233 233 233 233 234 234 234 234 235 236 238 239 240 242 244 245 246 246 247 247 248 250 251 252 253 254 255 254 255 256 258 260 261 264 266 267 268 270 270 270 271 271 271 272 272 273 273 273 272 273 274 274 274
267 266 265 262 260 259 257 256 254 252 249 246 245 244 244 243 242 242 241 240 240 239 238 238 237 237 237 238 239 239 238 238 237 235 233 233 233 233 233 233 233 233 234 235 236 237 238 239 241 242 244 245 246 246 247 248 250 252 253 254 254 254 254 256 258 259 260 262 265 267 268 269 270 270 271 271 271 270 270 270 270 270 271 272 273 273 273 272
266 265 263 261 259 258 256 255 254 252 250 247 245 243 243 242 241 240 239 239 238 237 237 236 236 236 236 238 238 237 236 236 236 235 233 233 233 233 233 233 233 234 234 235 235 236 237 238 239 241 242 244 245 245 247 248 251 253 254 254 254 253 254 257 259 260 262 265 267 268 269 270 270 270 269 269 269 269 269 269 270 270 271 272 272 271 271 271
264 263 261 259 258 256 255 255 254 252 250 248 245 243 242 241 240 239 238 237 236 236 235 235 235 235 235 236 236 234 233 235 236 235 234 233 233 233 233 233 233 233 234 234 235 235 236 236 237 239 240 242 244 245 247 250 252 253 252 252 252 254 256 258 260 262 265 266 267 268 268 267 266 266 267 267 267 268 269 270 271 272 272 272 272 272 272 271
263 261 259 257 256 255 254 254 254 252 250 247 246 244 242 240 239 238 237 236 235 234 234 234 233 233 232 233 233 232 232 234 236 236 235 234 233 233 234 233 233 233 234 234 234 234 235 235 236 237 239 242 244 246 248 249 249 249 249 250 253 256 258 260 262 263 264 265 265 266 265 264 264 265 266 266 267 268 269 270 272 273 274 274 274 274 273 272
261 259 257 256 255 254 253 253 253 252 249 247 245 244 242 241 239 237 236 235 234 233 232 231 231 230 229 230 230 231 232 233 235 235 235 235 234 234 234 233 233 233 234 234 233 233 234 234 235 236 238 241 243 245 245 245 245 246 247 250 254 257 259 260 261 261 262 263 263 263 263 265 266 266 266 265 266 268 269 271 273 274 274 274 274 273 272 271
259 257 256 255 254 253 252 252 252 251 249 247 245 243 242 240 239 237 236 234 232 231 230 229 228 228 228 229 229 229 230 231 232 232 233 233 233 233 234 234 233 233 233 233 233 233 233 233 234 235 237 239 240 241 241 242 243 245 248 251 255 257 258 259 259 261 263 263 261 262 264 265 266 265 264 264 266 268 270 271 272 272 272 272 272 271 271 271
258 256 255 254 253 253 252 252 252 251 248 246 244 243 242 241 239 237 235 233 231 230 229 228 227 226 226 226 227 227 229 230 231 231 231 232 232 233 234 234 233 233 233 232 232 232 232 232 233 234 235 236 237 238 240 242 244 246 249 251 254 256 257 258 260 262 262 261 260 262 262 262 263 264 264 265 266 268 270 271 272 272 272 271 270 270 269 270
258 257 256 255 254 254 253 253 251 250 248 245 244 243 243 242 240 237 235 232 231 229 229 228 227 227 226 225 225 226 227 229 230 230 230 231 232 232 233 232 232 231 230 231 231 231 231 231 232 233 233 234 236 238 241 243 245 247 249 251 252 254 255 257 259 260 260 259 259 259 259 260 261 263 265 267 269 270 272 273 273 273 272 271 270 269 269 270
259 258 257 256 256 255 254 253 251 249 247 245 244 244 243 241 239 237 235 233 231 230 229 228 227 227 226 225 225 226 226 228 229 228 228 229 229 230 230 229 228 227 228 229 229 229 228 228 229 230 231 233 235 237 240 242 244 246 247 248 249 251 254 256 257 257 256 256 256 256 257 260 261 263 266 269 273 274 274 273 273 272 272 271 270 269 269 269
261 260 259 258 257 256 254 252 250 248 247 245 245 244 242 240 238 237 235 234 232 231 230 230 229 229 227 226 226 227 227 227 228 228 227 226 226 226 226 224 224 224 225 226 227 226 225 226 227 229 230 232 234 237 239 241 243 244 244 245 247 249 252 253 253 253 253 254 254 256 258 260 261 264 267 271 274 275 274 273 274 273 272 271 270 270 268 267
263 262 260 259 257 256 254 252 250 248 247 246 244 243 241 240 238 237 236 235 233 232 231 231 231 230 227 226 227 228 228 228 228 227 225 224 223 221 220 220 220 221 223 224 224 223 224 226 228 229 231 232 234 237 239 240 240 241 242 243 246 248 249 250 250 251 251 252 254 256 258 260 262 265 268 271 274 275 275 275 275 274 272 270 269 268 267 265
264 262 261 259 257 256 253 251 250 248 247 246 244 242 241 239 238 237 236 235 234 232 232 231 230 228 226 225 225 226 226 227 227 225 223 221 220 217 215 215 216 217 219 221 221 223 225 226 227 229 230 231 233 235 238 239 239 241 242 243 246 247 247 248 248 249 251 253 254 255 257 259 262 265 268 271 273 275 277 277 276 273 270 268 267 266 265 264
265 264 262 260 258 256 254 252 250 249 247 245 243 242 240 239 238 237 235 234 233 231 230 230 229 227 224 223 224 223 222 223 223 222 220 218 216 214 212 213 213 214 216 219 220 223 224 225 226 228 229 230 232 234 237 237 238 239 240 241 244 245 245 246 248 250 252 253 253 254 257 259 262 265 269 272 274 275 275 275 273 270 267 266 264 263 264 263
267 265 263 260 258 255 253 251 250 248 246 244 242 240 239 237 236 235 234 233 231 229 228 228 227 225 222 221 221 219 217 216 215 215 215 213 210 209 209 211 213 214 215 216 219 221 222 223 224 225 227 228 230 233 234 235 235 236 237 238 241 243 244 246 249 250 251 251 252 254 257 260 263 266 270 273 273 272 271 269 267 266 266 265 264 263 263 262
267 264 261 258 256 253 250 248 246 243 242 240 238 237 236 235 234 232 231 229 228 225 224 223 221 219 216 216 215 213 213 213 211 210 208 207 207 206 208 211 212 213 215 216 218 219 219 221 223 224 225 226 228 229 231 233 233 234 236 237 240 243 245 247 249 249 249 251 252 255 259 262 265 269 272 272 270 268 268 266 264 263 263 263 264 265 264 263
266 262 258 254 250 247 244 241 238 236 234 233 232 232 231 230 228 226 224 222 219 217 215 213 207 203 200 201 203 203 205 208 210 209 204 201 203 205 208 213 213 213 214 216 218 219 219 221 222 224 225 227 228 229 230 231 232 234 236 237 240 243 246 248 248 248 249 251 253 256 260 263 267 271 272 270 267 265 265 264 263 262 262 262 262 264 264 264
262 257 252 247 243 239 235 232 230 228 227 226 226 224 222 220 219 216 213 210 207 205 203 197 191 187 187 190 194 196 198 202 206 207 202 199 200 204 208 213 215 214 214 216 218 218 219 221 221 222 223 225 227 228 230 232 234 236 237 238 240 243 245 246 246 247 249 252 255 258 260 264 268 271 270 267 265 264 263 263 263 262 262 262 261 261 263 264
256 250 244 240 235 230 227 225 223 222 221 219 216 213 212 210 207 204 200 195 193 192 190 185 180 180 183 188 191 192 194 197 199 202 202 200 201 205 210 213 213 210 212 217 219 218 219 219 219 220 221 222 224 226 228 232 234 236 236 238 240 242 244 244 244 246 249 252 255 258 261 265 269 268 266 264 263 264 264 263 263 262 261 261 261 261 261 263
249 242 236 230 225 221 219 218 215 213 210 207 204 202 200 196 192 188 184 182 183 183 182 181 181 181 184 188 190 190 191 191 193 197 200 200 202 205 207 207 206 204 209 215 217 216 217 217 218 219 220 222 224 225 227 229 231 233 234 235 237 239 241 242 242 245 248 252 255 259 263 266 267 266 263 262 262 264 265 264 263 261 261 261 262 263 264 265
240 232 226 221 217 214 212 209 205 202 199 196 193 190 185 181 179 177 175 175 176 178 180 183 185 185 185 188 189 189 190 191 192 193 196 199 202 204 204 204 204 205 210 215 215 213 214 216 217 219 220 221 222 224 225 226 228 230 232 233 234 237 239 241 242 245 249 253 257 261 264 266 266 265 263 263 263 265 266 265 263 262 262 263 265 266 268 269
229 222 216 212 208 204 201 197 195 192 189 185 180 176 174 173 173 172 170 171 174 178 182 185 188 188 188 188 189 189 191 195 195 193 194 198 202 205 206 206 208 210 212 217 216 214 214 215 216 218 219 220 221 223 224 225 227 230 232 233 234 236 239 242 244 248 251 255 259 262 264 265 265 265 265 265 266 266 266 266 265 265 266 268 270 271 272 272
217 211 205 201 196 192 189 186 185 182 177 173 169 168 170 171 170 169 168 171 177 181 183 186 188 190 191 190 191 192 195 197 197 195 194 196 200 204 206 206 210 212 213 217 217 215 215 216 217 217 218 219 221 222 223 225 227 229 231 233 235 237 240 243 247 251 254 257 259 261 263 265 266 267 268 268 268 269 268 268 269 270 271 273 275 276 278 277
205 199 194 189 185 183 180 178 175 171 167 165 165 168 170 170 169 168 170 176 181 183 184 186 189 191 192 194 195 197 199 200 200 199 198 198 199 201 204 207 211 213 216 219 218 215 215 216 216 217 218 219 221 222 224 226 229 231 233 235 237 239 243 246 249 253 256 257 258 260 262 264 267 269 270 270 270 271 270 270 271 272 274 276 278 281 284 283
194 188 184 181 178 177 174 170 167 164 162 164 167 169 169 169 169 171 174 180 184 185 186 188 189 191 192 195 197 199 201 202 203 203 203 203 203 204 207 210 214 219 221 221 219 217 217 216 216 217 219 220 221 223 225 227 229 232 234 237 240 241 244 247 250 253 255 256 257 259 261 265 268 269 270 271 271 271 270 270 271 272 274 277 281 285 287 284
182 178 175 174 173 171 169 166 163 162 163 166 168 168 169 170 172 174 178 183 184 185 186 188 190 192 192 194 197 200 202 204 205 206 206 208 209 211 215 217 220 222 221 219 219 220 220 219 218 219 220 221 222 224 225 227 229 231 235 238 241 242 245 248 250 252 254 256 258 259 262 264 267 268 269 271 271 270 270 270 271 273 276 279 282 285 285 282
174 171 169 168 167 166 163 162 162 163 165 167 168 169 171 173 174 177 182 184 184 185 186 187 189 191 193 194 196 200 203 206 207 208 210 212 213 215 218 219 220 219 217 217 219 221 222 222 221 222 223 223 224 225 226 228 229 231 235 238 241 243 246 248 250 252 254 255 256 258 261 263 265 267 268 270 271 271 271 271 273 276 279 281 283 284 283 279
169 167 166 164 162 161 161 162 164 166 167 168 169 172 173 174 176 179 182 184 185 186 187 188 189 190 192 194 196 199 203 207 209 211 213 214 215 216 217 218 218 217 216 218 219 220 221 222 222 223 224 225 225 227 228 229 230 233 236 239 242 244 247 249 251 252 253 254 255 257 259 261 263 265 267 269 271 272 273 274 276 278 281 282 284 284 281 277
166 164 163 162 160 161 162 165 166 167 167 169 172 175 176 176 178 179 181 184 185 186 187 188 189 190 191 193 196 199 202 204 207 210 213 214 215 216 217 217 217 217 218 219 220 221 222 222 221 222 223 224 225 227 229 230 232 235 238 241 243 245 247 249 251 253 254 254 255 256 258 259 261 264 266 268 270 272 274 276 278 280 282 283 285 284 280 275
164 163 163 162 162 163 165 167 167 167 169 172 175 177 178 179 180 180 182 184 185 185 186 186 187 189 190 192 195 198 201 203 205 208 211 213 215 216 217 217 218 218 219 220 221 222 223 223 222 221 222 224 225 226 229 231 232 235 238 241 244 245 247 250 251 253 254 255 256 256 257 258 260 263 265 267 271 273 275 277 279 281 281 283 285 282 279 271
165 164 165 164 165 166 167 168 168 168 171 175 177 179 181 181 182 183 185 186 187 187 187 186 187 188 191 193 195 198 200 202 205 207 210 212 214 214 215 217 218 219 219 220 222 223 224 225 224 223 223 225 226 228 230 232 233 235 238 241 243 246 248 250 252 253 254 255 255 255 257 259 260 263 265 268 271 273 275 278 279 280 281 282 282 279 277 268
167 165 166 166 167 168 168 169 169 170 173 177 179 180 182 182 183 184 186 189 190 191 191 190 188 189 191 194 196 199 200 202 205 208 211 213 215 215 215 216 218 218 219 220 222 224 226 226 225 225 225 226 228 230 232 233 234 235 237 239 242 244 247 249 250 251 252 253 255 257 258 260 261 263 265 268 271 273 275 278 279 279 280 280 280 277 274 264
169 168 167 166 167 169 169 169 170 172 175 178 179 181 183 184 185 187 189 191 193 194 195 194 192 191 193 195 198 200 202 203 206 208 211 213 215 216 216 217 218 218 219 220 221 223 226 227 227 226 226 226 228 230 232 234 235 236 237 238 240 243 244 246 248 251 252 254 256 258 259 260 261 263 266 269 271 273 276 278 278 278 278 278 278 276 273 262
170 168 167 166 167 169 170 171 172 174 176 178 180 183 185 187 188 190 191 192 194 196 198 198 196 195 196 197 199 201 203 204 206 209 211 214 215 217 218 218 219 220 220 221 222 223 225 227 227 227 227 227 228 230 233 235 236 238 239 241 242 243 245 247 249 251 253 254 255 256 258 260 262 264 267 269 271 274 276 277 276 276 275 274 277 276 271 259
169 168 167 167 168 170 173 174 175 176 179 181 184 186 188 190 192 194 194 194 196 198 199 201 201 200 200 201 202 203 204 205 207 209 211 213 215 217 218 219 220 221 222 223 224 225 227 227 228 229 229 228 229 230 233 235 237 238 240 241 243 245 246 247 248 250 252 253 254 256 257 259 262 264 266 268 271 273 274 275 274 272 271 271 275 276 269 255
169 168 168 169 170 174 177 177 178 179 182 185 187 188 190 193 196 199 200 200 200 201 203 204 206 206 206 206 207 207 207 208 210 211 213 214 216 218 218 219 220 222 223 225 226 227 229 229 230 231 231 231 231 232 233 235 237 238 239 241 243 245 246 247 248 249 251 252 254 256 257 259 261 264 266 268 270 272 272 273 271 268 267 269 274 276 268 254
170 170 171 172 173 176 179 180 181 183 185 187 189 190 192 195 199 202 203 204 205 206 208 210 211 212 211 211 212 212 211 212 213 214 215 216 218 219 220 220 221 222 223 225 226 228 229 230 231 232 233 233 233 234 234 236 237 239 240 240 242 244 246 247 248 249 250 252 254 256 258 260 262 264 266 268 269 269 270 269 267 265 265 269 274 275 268 253
173 173 173 174 175 177 179 182 184 185 188 190 191 191 193 197 201 204 206 206 208 209 212 213 216 217 217 218 218 218 218 217 216 217 218 219 220 222 223 223 223 224 224 225 226 228 230 231 231 233 234 235 235 235 235 235 237 238 240 241 242 244 246 247 248 249 251 252 254 257 259 261 262 264 266 267 266 267 268 266 264 263 264 269 275 275 267 254
176 176 176 176 177 178 180 183 186 188 190 193 195 195 197 200 204 207 208 209 210 212 213 215 217 219 221 222 223 224 225 224 223 222 223 223 224 225 226 227 227 228 228 228 228 229 230 232 232 233 235 236 236 236 236 236 237 238 239 241 242 244 246 247 249 250 252 253 255 257 259 261 263 264 265 265 265 266 265 262 261 263 266 271 277 276 268 256